| time (UTC) | temp F | wind direction | speed knots | gust knots | rain 1hr in | rain 24hr in | rain mn in | humidity % | barometer mb |
| 20260507093211 | 54 | 206 | 5.2 | 0.0 | 0.00 | 0.00 | 0.05 | 78 | 1012.3 |
| 20260507090211 | 53 | 209 | 4.3 | 0.0 | 0.00 | 0.00 | 0.05 | 79 | 1012.2 |
| 20260507083212 | 52 | 209 | 8.7 | 0.0 | 0.00 | 0.00 | 0.05 | 84 | 1012.0 |
| 20260507080211 | 51 | 207 | 7.8 | 0.0 | 0.00 | 0.00 | 0.05 | 86 | 1012.0 |
| 20260507073212 | 49 | 206 | 6.1 | 0.0 | 0.00 | 0.00 | 0.05 | 89 | 1011.7 |
| 20260507070212 | 49 | 207 | 7.8 | 0.0 | 0.00 | 0.00 | 0.05 | 90 | 1011.4 |
| 20260507063211 | 48 | 200 | 8.7 | 0.0 | 0.00 | 0.00 | 0.04 | 90 | 1011.3 |
| 20260507060211 | 47 | 213 | 5.2 | 0.0 | 0.00 | 0.00 | 0.03 | 91 | 1011.0 |
| 20260507053211 | 47 | 211 | 0.9 | 0.0 | 0.00 | 0.00 | 0.02 | 90 | 1010.7 |
| 20260507050213 | 47 | 210 | 7.0 | 0.0 | 0.00 | 0.00 | 0.01 | 89 | 1010.4 |
| 20260507043211 | 47 | 219 | 7.0 | 0.0 | 0.00 | 0.00 | 0.01 | 90 | 1010.1 |
| 20260507040216 | 47 | 207 | 7.0 | 0.0 | 0.00 | 0.00 | 0.01 | 89 | 1009.8 |
| 20260507033211 | 47 | 200 | 6.1 | 0.0 | 0.00 | 0.00 | 0.00 | 89 | 1009.7 |
| 20260507030211 | 47 | 202 | 7.8 | 0.0 | 0.00 | 0.00 | 0.00 | 88 | 1009.5 |
| 20260507023211 | 47 | 204 | 6.1 | 0.0 | 0.00 | 0.00 | 0.00 | 89 | 1009.4 |
| 20260507020211 | 46 | 205 | 7.0 | 0.0 | 0.00 | 0.00 | 0.00 | 89 | 1009.3 |
| 20260507013212 | 46 | 215 | 7.0 | 0.0 | 0.00 | 0.00 | 0.00 | 90 | 1009.2 |
| 20260507010211 | 46 | 215 | 4.3 | 0.0 | 0.00 | 0.00 | 0.00 | 90 | 1009.2 |
| 20260507003209 | 46 | 215 | 4.3 | 0.0 | 0.00 | 0.00 | 0.00 | 89 | 1008.9 |
| 20260507000209 | 46 | 215 | 5.2 | 0.0 | 0.00 | 0.00 | 0.00 | 90 | 1008.8 |
| 20260506233209 | 46 | 215 | 4.3 | 0.0 | 0.00 | 0.00 | 0.00 | 89 | 1008.8 |
| 20260506230209 | 46 | 215 | 3.5 | 0.0 | 0.00 | 0.00 | 0.00 | 89 | 1008.7 |
| 20260506223209 | 47 | 215 | 3.5 | 0.0 | 0.00 | 0.00 | 0.00 | 89 | 1008.6 |
| 20260506220209 | 47 | 215 | 1.7 | 0.0 | 0.00 | 0.00 | 0.28 | 89 | 1008.3 |
| 20260506213209 | 47 | 215 | 2.6 | 0.0 | 0.00 | 0.00 | 0.28 | 89 | 1008.3 |
| 20260506210210 | 47 | 216 | 5.2 | 0.0 | 0.00 | 0.00 | 0.28 | 88 | 1008.3 |
| 20260506203210 | 48 | 218 | 5.2 | 0.0 | 0.00 | 0.00 | 0.28 | 87 | 1008.1 |
| 20260506200210 | 49 | 209 | 6.1 | 0.0 | 0.00 | 0.00 | 0.28 | 87 | 1007.9 |
| 20260506193215 | 48 | 207 | 8.7 | 0.0 | 0.00 | 0.00 | 0.28 | 88 | 1007.6 |
| 20260506190211 | 48 | 216 | 8.7 | 0.0 | 0.00 | 0.00 | 0.28 | 87 | 1007.1 |
| 20260506183209 | 49 | 213 | 7.8 | 0.0 | 0.00 | 0.00 | 0.28 | 86 | 1006.8 |
| 20260506180216 | 50 | 214 | 11.3 | 0.0 | 0.00 | 0.00 | 0.28 | 83 | 1006.6 |
| 20260506173210 | 52 | 192 | 9.6 | 0.0 | 0.00 | 0.00 | 0.28 | 83 | 1006.4 |
| 20260506170215 | 51 | 221 | 4.3 | 0.0 | 0.00 | 0.00 | 0.28 | 88 | 1006.0 |
| 20260506163210 | 50 | 221 | 5.2 | 0.0 | 0.00 | 0.00 | 0.28 | 89 | 1005.8 |
| 20260506160210 | 49 | 221 | 8.7 | 0.0 | 0.00 | 0.00 | 0.28 | 89 | 1005.6 |
| 20260506153210 | 49 | 219 | 10.4 | 0.0 | 0.00 | 0.00 | 0.25 | 89 | 1005.6 |
| 20260506150210 | 50 | 242 | 17.4 | 0.0 | 0.00 | 0.00 | 0.15 | 87 | 1005.3 |
| 20260506143210 | 53 | 205 | 16.5 | 0.0 | 0.00 | 0.00 | 0.10 | 86 | 1004.6 |
| 20260506140210 | 59 | 245 | 8.7 | 0.0 | 0.00 | 0.00 | 0.00 | 74 | 1003.6 |
| 20260506133211 | 60 | 245 | 4.3 | 0.0 | 0.00 | 0.00 | 0.00 | 70 | 1003.5 |
| 20260506130211 | 60 | 245 | 0.0 | 0.0 | 0.00 | 0.00 | 0.00 | 65 | 1003.4 |
| 20260506123210 | 61 | 245 | 1.7 | 0.0 | 0.00 | 0.00 | 0.00 | 65 | 1003.4 |
| 20260506120210 | 61 | 245 | 2.6 | 0.0 | 0.00 | 0.00 | 0.00 | 64 | 1003.1 |
| 20260506113217 | 61 | 245 | 1.7 | 0.0 | 0.00 | 0.00 | 0.00 | 65 | 1003.3 |
| 20260506110210 | 60 | 245 | 0.0 | 0.0 | 0.00 | 0.00 | 0.00 | 68 | 1003.6 |
| 20260506100213 | 58 | 245 | 0.0 | 0.0 | 0.00 | 0.00 | 0.00 | 69 | 1003.7 |